Tracking 28126 objects as of 2-Oct-2023
HD Live streaming from Space Station
objects crossing your sky now

GLOBAL-19

Track GLOBAL-19 now!
10-day predictions


NORAD ID: 55982
Int'l Code: 2023-041B
Perigee: 444.7 km
Apogee: 474.6 km
Inclination: 42.0 °
Period: 93.6 minutes
Semi major axis: 6830 km
RCS: Unknown
Launch date: March 24, 2023
Source: United States (US)
Launch site: Rocket Lab Launch Complex (RLLC)
Your satellite tracking list
Your tracking list is empty




NASA's NSSDC Master Catalog

Two Line Element Set (TLE):
1 55982U 23041B   23274.69677841  .00028292  00000-0  74257-3 0  9996
2 55982  42.0146 214.8478 0021888 131.7636 228.5079 15.37821736 29519
Source of the keplerian elements: AFSPC